OAL855 LGAV-LGPL

Flight info

Callsign OAL855
Flight time 1h 2m
Altitude 11000
Route KEA L52 ASTIS
Aircraft C208/L-SDFGR/C

Departure

Time 2026-05-05 09:18
Airport Athens Eleftherios Venizelos International Airport (LGAV)

Arrival

Time 2026-05-05 10:20
Airport Astypalaia Airport (LGPL)
Time Latitude Longitude Altitude Speed Heading
2026-05-05 08:54 37.92321 23.93740 300 ft 0 kts 37°
2026-05-05 09:11 37.92323 23.93746 302 ft 2 kts 99°
2026-05-05 09:11 37.92303 23.93797 300 ft 10 kts 121°
2026-05-05 09:11 37.92308 23.93862 303 ft 11 kts 37°
2026-05-05 09:11 37.92390 23.93937 301 ft 18 kts 37°
2026-05-05 09:12 37.92459 23.94003 301 ft 16 kts 38°
2026-05-05 09:12 37.92438 23.94151 302 ft 16 kts 127°
2026-05-05 09:12 37.92411 23.94231 303 ft 4 kts 86°
2026-05-05 09:12 37.92411 23.94235 303 ft 0 kts 86°
2026-05-05 09:15 37.92412 23.94248 304 ft 4 kts 85°
2026-05-05 09:15 37.92414 23.94303 306 ft 9 kts 87°
2026-05-05 09:16 37.92430 23.94397 307 ft 11 kts 49°
2026-05-05 09:16 37.92445 23.94415 307 ft 0 kts 39°
2026-05-05 09:16 37.92457 23.94426 307 ft 12 kts 42°
2026-05-05 09:17 37.92644 23.94605 303 ft 54 kts 36°
2026-05-05 09:17 37.93049 23.94980 304 ft 86 kts 36°
2026-05-05 09:17 37.93552 23.95424 453 ft 91 kts 34°
2026-05-05 09:17 37.94060 23.95912 633 ft 93 kts 38°
2026-05-05 09:18 37.94522 23.96508 796 ft 97 kts 51°
2026-05-05 09:18 37.94871 23.97227 1025 ft 97 kts 54°
2026-05-05 09:18 37.95271 23.97983 1173 ft 109 kts 53°
2026-05-05 09:18 37.95727 23.98731 1482 ft 105 kts 44°
2026-05-05 09:19 37.96235 23.99424 1753 ft 109 kts 45°
2026-05-05 09:19 37.96640 24.00290 2058 ft 122 kts 58°
2026-05-05 09:19 37.97067 24.01298 2323 ft 131 kts 60°
2026-05-05 09:19 37.97449 24.02338 2559 ft 129 kts 64°
2026-05-05 09:20 37.97788 24.03398 2768 ft 130 kts 66°
2026-05-05 09:20 37.98083 24.04483 2970 ft 130 kts 69°
2026-05-05 09:20 37.98330 24.05577 3174 ft 131 kts 72°
2026-05-05 09:20 37.98533 24.06706 3376 ft 131 kts 76°
2026-05-05 09:21 37.98687 24.07847 3575 ft 131 kts 78°
2026-05-05 09:21 37.98792 24.08994 3776 ft 131 kts 82°
2026-05-05 09:21 37.98848 24.10155 3970 ft 132 kts 84°
2026-05-05 09:21 37.98862 24.11326 4167 ft 132 kts 85°
2026-05-05 09:22 37.98879 24.12484 4369 ft 131 kts 84°
2026-05-05 09:22 37.98896 24.13634 4565 ft 130 kts 84°
2026-05-05 09:22 37.98912 24.14778 4769 ft 130 kts 84°
2026-05-05 09:22 37.98928 24.15908 4966 ft 130 kts 83°
2026-05-05 09:23 37.98944 24.17050 5163 ft 129 kts 83°
2026-05-05 09:23 37.98959 24.18192 5365 ft 129 kts 83°
2026-05-05 09:23 37.98975 24.19329 5567 ft 129 kts 83°
2026-05-05 09:23 37.98948 24.20467 5753 ft 132 kts 99°
2026-05-05 09:24 37.98370 24.21353 5944 ft 138 kts 149°
2026-05-05 09:24 37.97441 24.21632 6140 ft 137 kts 172°
2026-05-05 09:24 37.96498 24.21817 6354 ft 137 kts 169°
2026-05-05 09:24 37.95560 24.22004 6552 ft 136 kts 170°
2026-05-05 09:25 37.94628 24.22189 6744 ft 135 kts 169°
2026-05-05 09:25 37.93694 24.22373 6914 ft 137 kts 169°
2026-05-05 09:25 37.92749 24.22559 7085 ft 138 kts 169°
2026-05-05 09:25 37.91795 24.22749 7263 ft 139 kts 169°
2026-05-05 09:26 37.90837 24.22939 7435 ft 140 kts 169°
2026-05-05 09:26 37.89884 24.23128 7609 ft 140 kts 169°
2026-05-05 09:26 37.88916 24.23320 7791 ft 141 kts 169°
2026-05-05 09:26 37.87947 24.23513 7966 ft 141 kts 169°
2026-05-05 09:27 37.86976 24.23705 8144 ft 141 kts 169°
2026-05-05 09:27 37.86006 24.23898 8324 ft 141 kts 169°
2026-05-05 09:27 37.85031 24.24092 8486 ft 143 kts 169°
2026-05-05 09:27 37.84041 24.24288 8645 ft 145 kts 169°
2026-05-05 09:28 37.83038 24.24487 8809 ft 146 kts 169°
2026-05-05 09:28 37.82042 24.24684 8964 ft 147 kts 169°
2026-05-05 09:28 37.81027 24.24885 9124 ft 148 kts 169°
2026-05-05 09:28 37.80004 24.25087 9284 ft 149 kts 169°
2026-05-05 09:29 37.78976 24.25291 9448 ft 150 kts 169°
2026-05-05 09:29 37.77941 24.25496 9606 ft 151 kts 169°
2026-05-05 09:29 37.76904 24.25701 9769 ft 151 kts 169°
2026-05-05 09:29 37.75863 24.25907 9929 ft 152 kts 169°
2026-05-05 09:30 37.74818 24.26114 10081 ft 152 kts 169°
2026-05-05 09:30 37.73787 24.26318 10222 ft 152 kts 169°
2026-05-05 09:30 37.72739 24.26526 10364 ft 152 kts 169°
2026-05-05 09:30 37.71691 24.26733 10510 ft 152 kts 169°
2026-05-05 09:31 37.70643 24.26940 10650 ft 153 kts 169°
2026-05-05 09:31 37.69592 24.27148 10794 ft 153 kts 170°
2026-05-05 09:31 37.68541 24.27355 10940 ft 153 kts 170°
2026-05-05 09:31 37.67484 24.27565 11047 ft 156 kts 170°
2026-05-05 09:32 37.66374 24.27782 11068 ft 165 kts 170°
2026-05-05 09:32 37.65206 24.28011 11069 ft 173 kts 170°
2026-05-05 09:32 37.64002 24.28247 11068 ft 177 kts 170°
2026-05-05 09:32 37.62766 24.28485 11059 ft 183 kts 171°
2026-05-05 09:33 37.61511 24.28740 11064 ft 186 kts 170°
2026-05-05 09:33 37.60236 24.28993 11062 ft 184 kts 171°
2026-05-05 09:33 37.58976 24.29240 11066 ft 183 kts 171°
2026-05-05 09:33 37.57716 24.29488 11065 ft 183 kts 171°
2026-05-05 09:34 37.56469 24.29797 11068 ft 182 kts 158°
2026-05-05 09:34 37.55424 24.30655 11072 ft 179 kts 131°
2026-05-05 09:34 37.54710 24.31911 11075 ft 177 kts 116°
2026-05-05 09:34 37.54067 24.33212 11065 ft 176 kts 118°
2026-05-05 09:35 37.53410 24.34512 11065 ft 175 kts 117°
2026-05-05 09:35 37.52118 24.37100 11062 ft 174 kts 117°
2026-05-05 09:35 37.51473 24.38393 11062 ft 173 kts 117°
2026-05-05 09:36 37.50830 24.39679 11060 ft 173 kts 117°
2026-05-05 09:36 37.50189 24.40962 11064 ft 173 kts 117°
2026-05-05 09:36 37.49546 24.42245 11064 ft 173 kts 117°
2026-05-05 09:36 37.48905 24.43528 11061 ft 173 kts 117°
2026-05-05 09:37 37.48264 24.44807 11059 ft 173 kts 117°
2026-05-05 09:37 37.47631 24.46071 11063 ft 172 kts 117°
2026-05-05 09:37 37.46991 24.47350 11060 ft 172 kts 117°
2026-05-05 09:37 37.46350 24.48629 11065 ft 172 kts 117°
2026-05-05 09:38 37.45709 24.49906 11063 ft 172 kts 117°
2026-05-05 09:38 37.45073 24.51185 11065 ft 172 kts 115°
2026-05-05 09:38 37.44481 24.52488 11067 ft 171 kts 114°
2026-05-05 09:38 37.43833 24.53759 11059 ft 173 kts 120°
2026-05-05 09:39 37.43166 24.54991 11066 ft 172 kts 118°
2026-05-05 09:39 37.42519 24.56261 11064 ft 172 kts 117°
2026-05-05 09:39 37.41878 24.57537 11062 ft 172 kts 117°
2026-05-05 09:39 37.41237 24.58812 11065 ft 172 kts 117°
2026-05-05 09:40 37.40597 24.60086 11065 ft 172 kts 117°
2026-05-05 09:40 37.39956 24.61360 11066 ft 172 kts 117°
2026-05-05 09:40 37.39313 24.62637 11065 ft 172 kts 117°
2026-05-05 09:40 37.38672 24.63910 11066 ft 172 kts 117°
2026-05-05 09:41 37.38031 24.65183 11065 ft 172 kts 117°
2026-05-05 09:41 37.37399 24.66437 11063 ft 172 kts 117°
2026-05-05 09:41 37.36758 24.67708 11066 ft 172 kts 117°
2026-05-05 09:41 37.36118 24.68977 11066 ft 172 kts 117°
2026-05-05 09:42 37.35477 24.70249 11065 ft 172 kts 117°
2026-05-05 09:42 37.34835 24.71520 11061 ft 172 kts 117°
2026-05-05 09:42 37.34192 24.72794 11065 ft 172 kts 117°
2026-05-05 09:42 37.33551 24.74063 11063 ft 172 kts 117°
2026-05-05 09:43 37.32918 24.75315 11064 ft 172 kts 117°
2026-05-05 09:43 37.32277 24.76584 11061 ft 172 kts 117°
2026-05-05 09:43 37.31634 24.77856 11066 ft 172 kts 117°
2026-05-05 09:43 37.30993 24.79124 11065 ft 172 kts 117°
2026-05-05 09:44 37.30349 24.80395 11062 ft 172 kts 117°
2026-05-05 09:44 37.29706 24.81667 11066 ft 172 kts 117°
2026-05-05 09:44 37.29061 24.82941 11066 ft 173 kts 117°
2026-05-05 09:44 37.28416 24.84213 11069 ft 173 kts 117°
2026-05-05 09:45 37.27779 24.85472 11066 ft 173 kts 117°
2026-05-05 09:45 37.27132 24.86747 11068 ft 173 kts 117°
2026-05-05 09:45 37.26485 24.88023 11071 ft 173 kts 117°
2026-05-05 09:45 37.25839 24.89296 11067 ft 173 kts 117°
2026-05-05 09:46 37.25191 24.90572 11071 ft 173 kts 117°
2026-05-05 09:46 37.24544 24.91846 11069 ft 173 kts 116°
2026-05-05 09:46 37.23896 24.93122 11072 ft 173 kts 116°
2026-05-05 09:46 37.23250 24.94395 11070 ft 173 kts 116°
2026-05-05 09:47 37.22602 24.95669 11074 ft 173 kts 116°
2026-05-05 09:47 37.21955 24.96940 11073 ft 173 kts 116°
2026-05-05 09:47 37.21309 24.98210 11076 ft 173 kts 116°
2026-05-05 09:47 37.20663 24.99481 11075 ft 173 kts 116°
2026-05-05 09:48 37.20024 25.00736 11072 ft 173 kts 116°
2026-05-05 09:48 37.19377 25.02005 11069 ft 173 kts 116°
2026-05-05 09:48 37.18730 25.03275 11068 ft 173 kts 116°
2026-05-05 09:48 37.18083 25.04544 11072 ft 173 kts 116°
2026-05-05 09:49 37.17436 25.05815 11073 ft 173 kts 116°
2026-05-05 09:49 37.16787 25.07086 11072 ft 173 kts 116°
2026-05-05 09:49 37.16140 25.08356 11072 ft 173 kts 116°
2026-05-05 09:49 37.15491 25.09625 11069 ft 173 kts 116°
2026-05-05 09:50 37.14853 25.10876 11071 ft 173 kts 116°
2026-05-05 09:50 37.14205 25.12144 11064 ft 173 kts 116°
2026-05-05 09:50 37.13556 25.13415 11070 ft 173 kts 116°
2026-05-05 09:50 37.12905 25.14688 11067 ft 173 kts 116°
2026-05-05 09:51 37.12258 25.15955 11065 ft 173 kts 116°
2026-05-05 09:51 37.11603 25.17238 11079 ft 176 kts 116°
2026-05-05 09:51 37.10941 25.18534 11080 ft 177 kts 116°
2026-05-05 09:51 37.10275 25.19831 11078 ft 178 kts 117°
2026-05-05 09:52 37.09606 25.21131 11073 ft 176 kts 116°
2026-05-05 09:52 37.08950 25.22428 11075 ft 178 kts 116°
2026-05-05 09:52 37.08281 25.23731 11075 ft 178 kts 117°
2026-05-05 09:52 37.07620 25.25016 11077 ft 178 kts 116°
2026-05-05 09:53 37.06951 25.26326 11072 ft 179 kts 116°
2026-05-05 09:53 37.06274 25.27651 11074 ft 182 kts 117°
2026-05-05 09:53 37.05590 25.28980 11070 ft 180 kts 117°
2026-05-05 09:53 37.04916 25.30292 11067 ft 178 kts 117°
2026-05-05 09:54 37.04249 25.31593 11065 ft 177 kts 116°
2026-05-05 09:54 37.03584 25.32888 11065 ft 176 kts 116°
2026-05-05 09:54 37.02922 25.34178 11060 ft 176 kts 117°
2026-05-05 09:54 37.02261 25.35465 11061 ft 175 kts 117°
2026-05-05 09:55 37.01601 25.36748 11061 ft 175 kts 116°
2026-05-05 09:55 37.00948 25.38018 11061 ft 175 kts 117°
2026-05-05 09:55 37.00287 25.39301 11063 ft 177 kts 117°
2026-05-05 09:55 36.99619 25.40601 11063 ft 177 kts 117°
2026-05-05 09:56 36.98950 25.41896 11064 ft 177 kts 116°
2026-05-05 09:56 36.98285 25.43192 11067 ft 176 kts 116°
2026-05-05 09:56 36.97622 25.44487 11069 ft 177 kts 116°
2026-05-05 09:56 36.96950 25.45785 11070 ft 178 kts 117°
2026-05-05 09:57 36.96277 25.47088 11068 ft 178 kts 116°
2026-05-05 09:57 36.95606 25.48388 11073 ft 178 kts 117°
2026-05-05 09:57 36.94934 25.49692 11070 ft 179 kts 117°
2026-05-05 09:57 36.94267 25.50983 11069 ft 178 kts 117°
2026-05-05 09:58 36.93596 25.52282 11070 ft 177 kts 117°
2026-05-05 09:58 36.92929 25.53573 11070 ft 176 kts 116°
2026-05-05 09:58 36.92263 25.54862 11067 ft 176 kts 116°
2026-05-05 09:58 36.91600 25.56146 11066 ft 175 kts 116°
2026-05-05 09:59 36.90936 25.57429 11074 ft 178 kts 116°
2026-05-05 09:59 36.90260 25.58737 11070 ft 179 kts 116°
2026-05-05 09:59 36.89596 25.60018 11070 ft 177 kts 116°
2026-05-05 09:59 36.88927 25.61310 11078 ft 178 kts 117°
2026-05-05 10:00 36.88245 25.62625 11076 ft 181 kts 116°
2026-05-05 10:00 36.87563 25.63943 11077 ft 180 kts 117°
2026-05-05 10:00 36.86886 25.65249 11076 ft 178 kts 116°
2026-05-05 10:00 36.86213 25.66548 11072 ft 177 kts 116°
2026-05-05 10:01 36.85544 25.67837 11074 ft 177 kts 116°
2026-05-05 10:01 36.84876 25.69125 11069 ft 176 kts 116°
2026-05-05 10:01 36.84206 25.70414 11045 ft 178 kts 116°
2026-05-05 10:01 36.83530 25.71715 10850 ft 179 kts 117°
2026-05-05 10:02 36.83073 25.72587 10712 ft 177 kts 116°
2026-05-05 10:02 36.82189 25.74295 10424 ft 178 kts 116°
2026-05-05 10:02 36.81743 25.75153 10303 ft 177 kts 116°
2026-05-05 10:02 36.81071 25.76442 10115 ft 177 kts 116°
2026-05-05 10:03 36.80401 25.77732 9914 ft 177 kts 116°
2026-05-05 10:03 36.79729 25.79024 9707 ft 178 kts 116°
2026-05-05 10:03 36.79055 25.80318 9496 ft 178 kts 116°
2026-05-05 10:03 36.78383 25.81620 9293 ft 179 kts 116°
2026-05-05 10:04 36.77700 25.82919 9072 ft 179 kts 116°
2026-05-05 10:04 36.77022 25.84216 8868 ft 178 kts 115°
2026-05-05 10:04 36.76358 25.85493 8665 ft 177 kts 115°
2026-05-05 10:04 36.75683 25.86787 8460 ft 177 kts 115°
2026-05-05 10:05 36.75011 25.88075 8258 ft 177 kts 115°
2026-05-05 10:05 36.74340 25.89360 8061 ft 177 kts 115°
2026-05-05 10:05 36.73669 25.90645 7855 ft 176 kts 114°
2026-05-05 10:05 36.73000 25.91924 7658 ft 176 kts 114°
2026-05-05 10:06 36.72333 25.93203 7459 ft 176 kts 114°
2026-05-05 10:06 36.71665 25.94478 7258 ft 175 kts 114°
2026-05-05 10:06 36.71002 25.95747 7065 ft 174 kts 114°
2026-05-05 10:06 36.70346 25.97000 6867 ft 174 kts 114°
2026-05-05 10:07 36.69682 25.98269 6677 ft 174 kts 114°
2026-05-05 10:07 36.69019 25.99535 6475 ft 174 kts 114°
2026-05-05 10:07 36.68359 26.00797 6273 ft 174 kts 114°
2026-05-05 10:07 36.67698 26.02058 6065 ft 173 kts 114°
2026-05-05 10:08 36.67040 26.03313 5861 ft 173 kts 115°
2026-05-05 10:08 36.66381 26.04569 5658 ft 173 kts 115°
2026-05-05 10:08 36.65725 26.05820 5454 ft 172 kts 115°
2026-05-05 10:08 36.65070 26.07066 5252 ft 172 kts 116°
2026-05-05 10:09 36.64426 26.08294 5056 ft 171 kts 116°
2026-05-05 10:09 36.63775 26.09535 4858 ft 171 kts 116°
2026-05-05 10:09 36.63126 26.10770 4652 ft 170 kts 117°
2026-05-05 10:09 36.62476 26.12006 4447 ft 170 kts 117°
2026-05-05 10:10 36.61827 26.13240 4240 ft 170 kts 117°
2026-05-05 10:10 36.61178 26.14474 4035 ft 170 kts 117°
2026-05-05 10:10 36.60538 26.15684 3834 ft 165 kts 117°
2026-05-05 10:10 36.59913 26.16872 3623 ft 163 kts 117°
2026-05-05 10:11 36.59296 26.18047 3421 ft 161 kts 118°
2026-05-05 10:11 36.58685 26.19206 3217 ft 159 kts 118°
2026-05-05 10:11 36.58077 26.20360 3014 ft 159 kts 118°
2026-05-05 10:11 36.57351 26.21370 2998 ft 159 kts 138°
2026-05-05 10:12 36.56479 26.22196 2990 ft 159 kts 138°
2026-05-05 10:12 36.55581 26.23073 3099 ft 176 kts 138°
2026-05-05 10:12 36.54593 26.24032 2990 ft 177 kts 139°
2026-05-05 10:12 36.53623 26.24959 2908 ft 175 kts 139°
2026-05-05 10:13 36.52667 26.25877 2778 ft 172 kts 139°
2026-05-05 10:13 36.51723 26.26786 2649 ft 171 kts 139°
2026-05-05 10:13 36.50786 26.27691 2523 ft 170 kts 139°
2026-05-05 10:13 36.49853 26.28598 2385 ft 170 kts 139°
2026-05-05 10:14 36.48942 26.29499 2258 ft 169 kts 137°
2026-05-05 10:14 36.48369 26.30699 2127 ft 161 kts 92°
2026-05-05 10:14 36.48402 26.32067 2013 ft 159 kts 80°
2026-05-05 10:14 36.48476 26.33444 1886 ft 160 kts 80°
2026-05-05 10:15 36.48542 26.34833 1759 ft 162 kts 80°
2026-05-05 10:15 36.48606 26.36245 1633 ft 163 kts 81°
2026-05-05 10:15 36.48683 26.37641 1528 ft 158 kts 81°
2026-05-05 10:15 36.48850 26.38949 1423 ft 152 kts 65°
2026-05-05 10:16 36.49217 26.40177 1311 ft 152 kts 63°
2026-05-05 10:16 36.49743 26.41250 1205 ft 142 kts 34°
2026-05-05 10:16 36.50571 26.41847 1094 ft 135 kts
2026-05-05 10:16 36.51444 26.41610 1007 ft 125 kts 331°
2026-05-05 10:17 36.52142 26.41155 985 ft 103 kts 329°
2026-05-05 10:17 36.52731 26.40781 989 ft 88 kts 329°
2026-05-05 10:17 36.53153 26.40521 1100 ft 58 kts 328°
2026-05-05 10:17 36.53547 26.40334 1063 ft 60 kts 333°
2026-05-05 10:18 36.53950 26.40186 1019 ft 59 kts 335°
2026-05-05 10:18 36.54349 26.40047 949 ft 60 kts 333°
2026-05-05 10:18 36.54768 26.39848 841 ft 69 kts 329°
2026-05-05 10:18 36.55178 26.39550 803 ft 69 kts 327°
2026-05-05 10:19 36.55606 26.39244 744 ft 71 kts 326°
2026-05-05 10:19 36.56020 26.38930 681 ft 72 kts 325°
2026-05-05 10:19 36.56463 26.38630 587 ft 72 kts 326°
2026-05-05 10:19 36.56897 26.38325 499 ft 70 kts 325°
2026-05-05 10:20 36.57320 26.38019 297 ft 70 kts 331°
2026-05-05 10:20 36.57725 26.37726 179 ft 66 kts 326°
2026-05-05 10:20 36.58089 26.37460 163 ft 55 kts 332°
2026-05-05 10:20 36.58291 26.37329 159 ft 22 kts 332°
2026-05-05 10:21 36.58401 26.37264 155 ft 8 kts 333°
2026-05-05 10:21 36.58406 26.37248 154 ft 2 kts 233°
2026-05-05 10:21 36.58351 26.37283 157 ft 15 kts 149°
2026-05-05 10:21 36.58235 26.37367 159 ft 23 kts 154°
2026-05-05 10:22 36.58144 26.37451 162 ft 9 kts 106°
2026-05-05 10:22 36.58165 26.37493 162 ft 6 kts 56°
2026-05-05 10:22 36.58162 26.37530 159 ft 0 kts 149°
2026-05-05 10:23 36.58161 26.37530 159 ft 0 kts 151°